Time,TemperatureF,DewpointF,PressureIn,WindDirection,WindDirectionDegrees,WindSpeedMPH,WindSpeedGustMPH,Humidity,HourlyPrecipIn,Conditions,Clouds,dailyrainin,SolarRadiationWatts/m^2,SoftwareType,DateUTC
2013-01-21 00:02:00,36.8,30.6,30.12,NW,306,0.0,0.0,78,0.00,,,0.00,0,Wunderground v.1.15,2013-01-21 05:02:00,
2013-01-21 00:08:00,36.5,30.6,30.12,NW,306,0.0,0.0,79,0.00,,,0.00,0,Wunderground v.1.15,2013-01-21 05:08:00,
2013-01-21 00:10:00,36.5,30.6,30.12,NW,306,0.0,0.0,79,0.00,,,0.00,0,Wunderground v.1.15,2013-01-21 05:10:00,
2013-01-21 00:12:00,36.3,30.4,30.12,NW,306,0.0,0.0,79,0.00,,,0.00,0,Wunderground v.1.15,2013-01-21 05:12:00,
2013-01-21 00:14:00,36.2,30.6,30.12,NW,306,0.0,0.0,80,0.00,,,0.00,0,Wunderground v.1.15,2013-01-21 05:14:00,
2013-01-21 00:20:00,36.0,30.4,30.12,NW,306,0.0,0.0,80,0.00,,,0.00,0,Wunderground v.1.15,2013-01-21 05:20:00,
2013-01-21 00:26:00,35.8,30.2,30.12,NW,306,0.0,0.0,80,0.00,,,0.00,0,Wunderground v.1.15,2013-01-21 05:26:00,
2013-01-21 00:32:00,35.6,30.3,30.12,NW,306,0.0,0.0,81,0.00,,,0.00,0,Wunderground v.1.15,2013-01-21 05:32:00,
2013-01-21 00:38:00,35.3,30.4,30.12,NW,306,0.0,0.0,82,0.00,,,0.00,0,Wunderground v.1.15,2013-01-21 05:38:00,
2013-01-21 00:44:00,35.2,30.3,30.12,NW,306,0.0,0.0,82,0.00,,,0.00,0,Wunderground v.1.15,2013-01-21 05:44:00,
2013-01-21 00:50:00,34.9,30.3,30.11,NW,306,0.0,0.0,83,0.00,,,0.00,0,Wunderground v.1.15,2013-01-21 05:50:00,
2013-01-21 00:55:00,34.7,30.1,30.11,NW,306,0.0,0.0,83,0.00,,,0.00,0,Wunderground v.1.15,2013-01-21 05:55:00,
2013-01-21 01:02:00,34.6,30.3,30.11,NW,306,0.0,0.0,84,0.00,,,0.00,0,Wunderground v.1.15,2013-01-21 06:02:00,
2013-01-21 01:08:00,34.3,30.0,30.11,NW,306,0.0,0.0,84,0.00,,,0.00,0,Wunderground v.1.15,2013-01-21 06:08:00,
2013-01-21 01:14:00,34.0,30.0,30.11,NW,306,0.0,0.0,85,0.00,,,0.00,0,Wunderground v.1.15,2013-01-21 06:14:00,
2013-01-21 01:20:00,34.1,30.1,30.10,NW,306,0.0,0.0,85,0.00,,,0.00,0,Wunderground v.1.15,2013-01-21 06:20:00,
2013-01-21 01:26:00,34.1,30.4,30.10,NW,306,0.0,0.0,86,0.00,,,0.00,0,Wunderground v.1.15,2013-01-21 06:26:00,
2013-01-21 01:32:00,34.1,30.4,30.10,NW,306,0.0,0.0,86,0.00,,,0.00,0,Wunderground v.1.15,2013-01-21 06:32:00,
2013-01-21 01:38:00,34.0,30.3,30.10,NW,306,0.0,0.0,86,0.00,,,0.00,0,Wunderground v.1.15,2013-01-21 06:38:00,
2013-01-21 01:44:00,33.7,30.0,30.10,NW,306,0.0,0.0,86,0.00,,,0.00,0,Wunderground v.1.15,2013-01-21 06:44:00,
2013-01-21 01:50:00,33.5,29.8,30.11,NW,306,0.0,0.0,86,0.00,,,0.00,0,Wunderground v.1.15,2013-01-21 06:50:00,
2013-01-21 01:56:00,33.4,29.7,30.11,NW,306,0.0,0.0,86,0.00,,,0.00,0,Wunderground v.1.15,2013-01-21 06:56:00,
2013-01-21 02:01:00,33.2,29.5,30.11,NW,306,0.0,0.0,86,0.00,,,0.00,0,Wunderground v.1.15,2013-01-21 07:01:00,
2013-01-21 02:08:00,33.1,29.4,30.11,NW,306,0.0,0.0,86,0.00,,,0.00,0,Wunderground v.1.15,2013-01-21 07:08:00,
2013-01-21 02:14:00,32.8,29.1,30.11,NW,306,0.0,0.0,86,0.00,,,0.00,0,Wunderground v.1.15,2013-01-21 07:14:00,
2013-01-21 02:20:00,32.5,28.8,30.11,NW,306,0.0,0.0,86,0.00,,,0.00,0,Wunderground v.1.15,2013-01-21 07:20:00,
2013-01-21 02:26:00,32.4,29.0,30.11,NW,306,0.0,0.0,87,0.00,,,0.00,0,Wunderground v.1.15,2013-01-21 07:26:00,
2013-01-21 02:32:00,32.4,29.2,30.11,NW,306,0.0,0.0,88,0.00,,,0.00,0,Wunderground v.1.15,2013-01-21 07:32:00,
2013-01-21 02:38:00,32.4,29.2,30.11,NW,306,0.0,0.0,88,0.00,,,0.00,0,Wunderground v.1.15,2013-01-21 07:38:00,
2013-01-21 02:44:00,32.2,-99.9,30.11,NW,306,0.0,0.0,255,0.00,,,0.00,0,Wunderground v.1.15,2013-01-21 07:44:00,
2013-01-21 02:50:00,32.1,28.9,30.11,NW,306,0.0,0.0,88,0.00,,,0.00,0,Wunderground v.1.15,2013-01-21 07:50:00,
2013-01-21 02:56:00,31.9,28.8,30.11,NW,306,0.0,0.0,88,0.00,,,0.00,0,Wunderground v.1.15,2013-01-21 07:56:00,
2013-01-21 03:02:00,31.8,28.9,30.11,NW,306,0.0,0.0,89,0.00,,,0.00,0,Wunderground v.1.15,2013-01-21 08:02:00,
2013-01-21 03:08:00,31.6,28.7,30.11,NW,306,0.0,0.0,89,0.00,,,0.00,0,Wunderground v.1.15,2013-01-21 08:08:00,
2013-01-21 03:14:00,31.5,28.6,30.11,NW,306,0.0,0.0,89,0.00,,,0.00,0,Wunderground v.1.15,2013-01-21 08:14:00,
2013-01-21 03:20:00,31.3,28.4,30.11,NW,306,0.0,0.0,89,0.00,,,0.00,0,Wunderground v.1.15,2013-01-21 08:20:00,
2013-01-21 03:25:00,31.0,28.1,30.11,NW,306,0.0,0.0,89,0.00,,,0.00,0,Wunderground v.1.15,2013-01-21 08:25:00,
2013-01-21 03:32:00,30.9,28.0,30.10,NW,306,0.0,0.0,89,0.00,,,0.00,0,Wunderground v.1.15,2013-01-21 08:32:00,
2013-01-21 03:38:00,30.9,28.3,30.10,NW,306,0.0,0.0,90,0.00,,,0.00,0,Wunderground v.1.15,2013-01-21 08:38:00,
2013-01-21 03:44:00,30.7,28.1,30.10,NW,306,0.0,0.0,90,0.00,,,0.00,0,Wunderground v.1.15,2013-01-21 08:44:00,
2013-01-21 03:50:00,30.7,28.1,30.10,NW,306,0.0,0.0,90,0.00,,,0.00,0,Wunderground v.1.15,2013-01-21 08:50:00,
2013-01-21 03:56:00,30.4,27.8,30.10,NW,306,0.0,0.0,90,0.00,,,0.00,0,Wunderground v.1.15,2013-01-21 08:56:00,
2013-01-21 04:02:00,30.3,28.0,30.10,NW,306,0.0,0.0,91,0.00,,,0.00,0,Wunderground v.1.15,2013-01-21 09:02:00,
2013-01-21 04:08:00,30.1,27.8,30.10,NW,306,0.0,0.0,91,0.00,,,0.00,0,Wunderground v.1.15,2013-01-21 09:08:00,
2013-01-21 04:13:00,30.1,27.8,30.10,NW,306,0.0,0.0,91,0.00,,,0.00,0,Wunderground v.1.15,2013-01-21 09:13:00,
2013-01-21 04:20:00,30.0,27.7,30.10,NW,306,0.0,0.0,91,0.00,,,0.00,0,Wunderground v.1.15,2013-01-21 09:20:00,
2013-01-21 04:26:00,30.0,27.7,30.10,NW,306,0.0,0.0,91,0.00,,,0.00,0,Wunderground v.1.15,2013-01-21 09:26:00,
2013-01-21 04:32:00,30.0,27.7,30.10,NW,306,0.0,0.0,91,0.00,,,0.00,0,Wunderground v.1.15,2013-01-21 09:32:00,
2013-01-21 04:38:00,30.0,27.7,30.10,NW,306,0.0,0.0,91,0.00,,,0.00,0,Wunderground v.1.15,2013-01-21 09:38:00,
2013-01-21 04:44:00,29.8,27.5,30.10,NW,306,0.0,0.0,91,0.00,,,0.00,0,Wunderground v.1.15,2013-01-21 09:44:00,
2013-01-21 04:50:00,29.7,27.7,30.10,NW,306,0.0,0.0,92,0.00,,,0.00,0,Wunderground v.1.15,2013-01-21 09:50:00,
2013-01-21 04:56:00,29.5,27.5,30.10,NW,306,0.0,0.0,92,0.00,,,0.00,0,Wunderground v.1.15,2013-01-21 09:56:00,
2013-01-21 05:02:00,29.5,27.5,30.10,NW,306,0.0,0.0,92,0.00,,,0.00,0,Wunderground v.1.15,2013-01-21 10:02:00,
2013-01-21 05:08:00,29.4,27.4,30.10,NW,306,0.0,0.0,92,0.00,,,0.00,0,Wunderground v.1.15,2013-01-21 10:08:00,
2013-01-21 05:14:00,29.5,27.5,30.10,NW,306,0.0,0.0,92,0.00,,,0.00,0,Wunderground v.1.15,2013-01-21 10:14:00,
2013-01-21 05:20:00,29.5,27.7,30.10,NW,306,0.0,0.0,93,0.00,,,0.00,0,Wunderground v.1.15,2013-01-21 10:20:00,
2013-01-21 05:26:00,29.4,27.4,30.10,NW,306,0.0,0.0,92,0.00,,,0.00,0,Wunderground v.1.15,2013-01-21 10:26:00,
2013-01-21 05:32:00,29.3,27.3,30.10,NW,306,0.0,0.0,92,0.00,,,0.00,0,Wunderground v.1.15,2013-01-21 10:32:00,
2013-01-21 05:38:00,29.1,27.3,30.10,NW,306,0.0,0.0,93,0.00,,,0.00,0,Wunderground v.1.15,2013-01-21 10:38:00,
2013-01-21 05:44:00,29.0,27.2,30.10,NW,306,0.0,0.0,93,0.00,,,0.00,0,Wunderground v.1.15,2013-01-21 10:44:00,
2013-01-21 05:50:00,28.8,27.0,30.10,NW,306,0.0,0.0,93,0.00,,,0.00,0,Wunderground v.1.15,2013-01-21 10:50:00,
2013-01-21 05:56:00,28.7,26.9,30.10,NW,306,0.0,0.0,93,0.00,,,0.00,0,Wunderground v.1.15,2013-01-21 10:56:00,
2013-01-21 06:04:00,28.7,26.9,30.10,NW,306,0.0,0.0,93,0.00,,,0.00,0,Wunderground v.1.15,2013-01-21 11:04:00,
2013-01-21 06:10:00,28.5,26.7,30.10,NW,306,0.0,0.0,93,0.00,,,0.00,0,Wunderground v.1.15,2013-01-21 11:10:00,
2013-01-21 06:16:00,28.5,26.7,30.10,NW,306,0.0,0.0,93,0.00,,,0.00,0,Wunderground v.1.15,2013-01-21 11:16:00,
2013-01-21 06:24:00,28.5,26.7,30.10,NW,306,0.0,0.0,93,0.00,,,0.00,0,Wunderground v.1.15,2013-01-21 11:24:00,
2013-01-21 06:30:00,28.4,26.6,30.10,NW,306,0.0,0.0,93,0.00,,,0.00,0,Wunderground v.1.15,2013-01-21 11:30:00,
2013-01-21 06:36:00,28.2,26.4,30.10,NW,306,0.0,0.0,93,0.00,,,0.00,0,Wunderground v.1.15,2013-01-21 11:36:00,
2013-01-21 06:42:00,28.1,26.3,30.10,NW,306,0.0,0.0,93,0.00,,,0.00,0,Wunderground v.1.15,2013-01-21 11:42:00,
2013-01-21 06:48:00,28.1,26.3,30.10,NW,306,0.0,0.0,93,0.00,,,0.00,0,Wunderground v.1.15,2013-01-21 11:48:00,
2013-01-21 06:53:00,28.1,26.3,30.10,NW,306,0.0,0.0,93,0.00,,,0.00,0,Wunderground v.1.15,2013-01-21 11:53:00,
2013-01-21 07:00:00,27.9,26.4,30.11,NW,306,0.0,0.0,94,0.00,,,0.00,0,Wunderground v.1.15,2013-01-21 12:00:00,
2013-01-21 07:06:00,27.8,26.3,30.11,NW,306,0.0,0.0,94,0.00,,,0.00,0,Wunderground v.1.15,2013-01-21 12:06:00,
2013-01-21 07:12:00,27.8,26.3,30.11,NW,306,0.0,0.0,94,0.00,,,0.00,0,Wunderground v.1.15,2013-01-21 12:12:00,
2013-01-21 07:18:00,27.6,26.1,30.10,NW,306,0.0,0.0,94,0.00,,,0.00,5,Wunderground v.1.15,2013-01-21 12:18:00,
2013-01-21 07:24:00,27.6,26.1,30.10,NW,306,0.0,0.0,94,0.00,,,0.00,7,Wunderground v.1.15,2013-01-21 12:24:00,
2013-01-21 07:30:00,27.6,26.1,30.10,NW,306,0.0,0.0,94,0.00,,,0.00,7,Wunderground v.1.15,2013-01-21 12:30:00,
2013-01-21 07:36:00,27.8,26.3,30.10,NW,306,0.0,0.0,94,0.00,,,0.00,11,Wunderground v.1.15,2013-01-21 12:36:00,
2013-01-21 07:42:00,27.9,26.4,30.10,NW,306,0.0,0.0,94,0.00,,,0.00,12,Wunderground v.1.15,2013-01-21 12:42:00,
2013-01-21 07:48:00,28.1,26.6,30.10,NW,306,0.0,0.0,94,0.00,,,0.00,16,Wunderground v.1.15,2013-01-21 12:48:00,
2013-01-21 07:54:00,28.1,26.6,30.10,NW,306,0.0,0.0,94,0.00,,,0.00,18,Wunderground v.1.15,2013-01-21 12:54:00,
2013-01-21 08:00:00,28.2,26.7,30.10,NW,306,0.0,0.0,94,0.00,,,0.00,21,Wunderground v.1.15,2013-01-21 13:00:00,
2013-01-21 08:06:00,28.2,27.0,30.10,NW,305,0.0,0.0,95,0.00,,,0.00,25,Wunderground v.1.15,2013-01-21 13:06:00,
2013-01-21 08:12:00,28.7,27.4,30.10,NW,305,0.0,0.0,95,0.00,,,0.00,116,Wunderground v.1.15,2013-01-21 13:12:00,
2013-01-21 08:18:00,29.7,28.7,30.11,NW,305,0.0,0.0,96,0.00,,,0.00,132,Wunderground v.1.15,2013-01-21 13:18:00,
2013-01-21 08:23:00,31.6,30.8,30.11,NW,305,0.0,0.0,97,0.00,,,0.00,146,Wunderground v.1.15,2013-01-21 13:23:00,
2013-01-21 08:30:00,32.8,32.0,30.11,NW,305,0.0,0.0,97,0.00,,,0.00,30,Wunderground v.1.15,2013-01-21 13:30:00,
2013-01-21 08:36:00,33.5,32.5,30.11,NW,305,0.0,0.0,96,0.00,,,0.00,32,Wunderground v.1.15,2013-01-21 13:36:00,
2013-01-21 08:41:00,33.7,32.7,30.11,NW,305,0.0,0.0,96,0.00,,,0.00,33,Wunderground v.1.15,2013-01-21 13:41:00,
2013-01-21 08:48:00,33.8,32.5,30.11,NW,305,0.0,0.0,95,0.00,,,0.00,33,Wunderground v.1.15,2013-01-21 13:48:00,
2013-01-21 08:54:00,34.1,32.8,30.11,NW,305,0.0,0.0,95,0.00,,,0.00,35,Wunderground v.1.15,2013-01-21 13:54:00,
2013-01-21 09:00:00,34.9,33.6,30.11,NW,305,0.0,0.0,95,0.00,,,0.00,245,Wunderground v.1.15,2013-01-21 14:00:00,
2013-01-21 09:06:00,36.0,34.7,30.11,NW,305,0.0,0.0,95,0.00,,,0.00,260,Wunderground v.1.15,2013-01-21 14:06:00,
2013-01-21 09:12:00,37.8,36.5,30.11,NW,305,0.0,0.0,95,0.00,,,0.00,274,Wunderground v.1.15,2013-01-21 14:12:00,
2013-01-21 09:18:00,38.9,36.5,30.11,NW,305,0.0,0.0,91,0.00,,,0.00,308,Wunderground v.1.15,2013-01-21 14:18:00,
2013-01-21 09:24:00,39.6,36.0,30.11,NW,305,0.0,0.0,87,0.00,,,0.00,331,Wunderground v.1.15,2013-01-21 14:24:00,
2013-01-21 09:30:00,40.3,35.8,30.12,NW,305,0.0,2.0,84,0.00,,,0.00,347,Wunderground v.1.15,2013-01-21 14:30:00,
2013-01-21 09:36:00,41.9,35.9,30.12,NW,304,1.0,2.0,79,0.00,,,0.00,362,Wunderground v.1.15,2013-01-21 14:36:00,
2013-01-21 09:42:00,43.3,35.2,30.12,SSE,150,2.0,5.0,73,0.00,,,0.00,375,Wunderground v.1.15,2013-01-21 14:42:00,
2013-01-21 09:48:00,44.6,35.1,30.11,SE,134,2.0,5.0,69,0.00,,,0.00,387,Wunderground v.1.15,2013-01-21 14:48:00,
2013-01-21 09:54:00,45.7,34.2,30.11,SE,131,2.0,5.0,64,0.00,,,0.00,405,Wunderground v.1.15,2013-01-21 14:54:00,
2013-01-21 10:00:00,46.4,34.5,30.11,SE,144,3.0,4.0,63,0.00,,,0.00,422,Wunderground v.1.15,2013-01-21 15:00:00,
2013-01-21 10:06:00,46.8,33.2,30.11,SSW,202,3.0,6.0,59,0.00,,,0.00,433,Wunderground v.1.15,2013-01-21 15:06:00,
2013-01-21 10:12:00,47.3,33.3,30.11,SSW,200,3.0,6.0,58,0.00,,,0.00,449,Wunderground v.1.15,2013-01-21 15:12:00,
2013-01-21 10:18:00,48.0,33.5,30.10,SSE,160,3.0,6.0,57,0.00,,,0.00,457,Wunderground v.1.15,2013-01-21 15:18:00,
2013-01-21 10:24:00,48.9,33.9,30.10,SSW,212,2.0,3.0,56,0.00,,,0.00,472,Wunderground v.1.15,2013-01-21 15:24:00,
2013-01-21 10:30:00,49.6,34.1,30.10,SE,131,2.0,2.0,55,0.00,,,0.00,482,Wunderground v.1.15,2013-01-21 15:30:00,
2013-01-21 10:36:00,50.2,31.2,30.10,SSW,213,3.0,5.0,48,0.00,,,0.00,496,Wunderground v.1.15,2013-01-21 15:36:00,
2013-01-21 10:42:00,50.8,31.8,30.10,South,182,5.0,7.0,48,0.00,,,0.00,507,Wunderground v.1.15,2013-01-21 15:42:00,
2013-01-21 10:47:00,51.4,31.8,30.09,SSE,168,5.0,7.0,47,0.00,,,0.00,519,Wunderground v.1.15,2013-01-21 15:47:00,
2013-01-21 10:54:00,51.7,31.0,30.09,SSW,202,5.0,6.0,45,0.00,,,0.00,523,Wunderground v.1.15,2013-01-21 15:54:00,
2013-01-21 11:00:00,52.2,30.4,30.08,SSW,209,4.0,4.0,43,0.00,,,0.00,535,Wunderground v.1.15,2013-01-21 16:00:00,
2013-01-21 11:06:00,53.1,31.7,30.08,WSW,243,2.0,5.0,44,0.00,,,0.00,545,Wunderground v.1.15,2013-01-21 16:06:00,
2013-01-21 11:12:00,53.3,29.6,30.08,South,188,3.0,3.0,40,0.00,,,0.00,554,Wunderground v.1.15,2013-01-21 16:12:00,
2013-01-21 11:18:00,53.8,30.0,30.08,SSW,196,3.0,3.0,40,0.00,,,0.00,561,Wunderground v.1.15,2013-01-21 16:18:00,
2013-01-21 11:24:00,54.2,29.1,30.08,SSW,210,2.0,5.0,38,0.00,,,0.00,568,Wunderground v.1.15,2013-01-21 16:24:00,
2013-01-21 11:30:00,54.5,28.7,30.07,SSW,198,3.0,3.0,37,0.00,,,0.00,574,Wunderground v.1.15,2013-01-21 16:30:00,
2013-01-21 11:36:00,55.0,29.2,30.07,SSW,196,4.0,7.0,37,0.00,,,0.00,579,Wunderground v.1.15,2013-01-21 16:36:00,
2013-01-21 11:42:00,54.8,28.3,30.07,ESE,103,5.0,7.0,36,0.00,,,0.00,584,Wunderground v.1.15,2013-01-21 16:42:00,
2013-01-21 11:48:00,55.1,28.6,30.06,South,176,3.0,7.0,36,0.00,,,0.00,589,Wunderground v.1.15,2013-01-21 16:48:00,
2013-01-21 11:54:00,55.6,29.0,30.06,WSW,244,3.0,4.0,36,0.00,,,0.00,593,Wunderground v.1.15,2013-01-21 16:54:00,
2013-01-21 12:00:00,55.9,28.6,30.04,WSW,246,4.0,5.0,35,0.00,,,0.00,598,Wunderground v.1.15,2013-01-21 17:00:00,
2013-01-21 12:06:00,56.0,26.5,30.04,SSW,203,4.0,6.0,32,0.00,,,0.00,598,Wunderground v.1.15,2013-01-21 17:06:00,
2013-01-21 12:11:00,56.5,28.4,30.04,WSW,241,4.0,10.0,34,0.00,,,0.00,600,Wunderground v.1.15,2013-01-21 17:11:00,
2013-01-21 12:18:00,56.9,27.3,30.03,SW,226,3.0,10.0,32,0.00,,,0.00,600,Wunderground v.1.15,2013-01-21 17:18:00,
2013-01-21 12:24:00,57.0,25.8,30.03,SW,224,3.0,6.0,30,0.00,,,0.00,602,Wunderground v.1.15,2013-01-21 17:24:00,
2013-01-21 12:30:00,56.9,25.7,30.01,WSW,239,4.0,4.0,30,0.00,,,0.00,602,Wunderground v.1.15,2013-01-21 17:30:00,
2013-01-21 12:36:00,57.0,26.6,30.01,South,176,4.0,8.0,31,0.00,,,0.00,600,Wunderground v.1.15,2013-01-21 17:36:00,
2013-01-21 12:42:00,57.2,26.0,30.01,SW,236,5.0,5.0,30,0.00,,,0.00,600,Wunderground v.1.15,2013-01-21 17:42:00,
2013-01-21 12:48:00,57.6,26.4,30.00,WSW,257,4.0,10.0,30,0.00,,,0.00,595,Wunderground v.1.15,2013-01-21 17:48:00,
2013-01-21 12:54:00,58.0,26.7,30.00,WSW,247,5.0,5.0,30,0.00,,,0.00,596,Wunderground v.1.15,2013-01-21 17:54:00,
2013-01-21 13:00:00,58.1,25.1,29.99,SSW,198,5.0,5.0,28,0.00,,,0.00,589,Wunderground v.1.15,2013-01-21 18:00:00,
2013-01-21 13:06:00,58.3,24.4,29.99,WSW,241,5.0,5.0,27,0.00,,,0.00,535,Wunderground v.1.15,2013-01-21 18:06:00,
2013-01-21 13:12:00,57.8,24.9,29.99,WSW,256,6.0,8.0,28,0.00,,,0.00,208,Wunderground v.1.15,2013-01-21 18:12:00,
2013-01-21 13:18:00,57.2,24.3,29.99,WSW,253,5.0,8.0,28,0.00,,,0.00,55,Wunderground v.1.15,2013-01-21 18:18:00,
2013-01-21 13:24:00,57.2,24.3,29.99,NW,312,3.0,4.0,28,0.00,,,0.00,99,Wunderground v.1.15,2013-01-21 18:24:00,
2013-01-21 13:30:00,57.3,24.4,29.98,West,274,3.0,3.0,28,0.00,,,0.00,53,Wunderground v.1.15,2013-01-21 18:30:00,
2013-01-21 13:36:00,57.3,24.4,29.98,SW,236,5.0,5.0,28,0.00,,,0.00,107,Wunderground v.1.15,2013-01-21 18:36:00,
2013-01-21 13:42:00,57.6,26.4,29.98,SW,230,3.0,10.0,30,0.00,,,0.00,81,Wunderground v.1.15,2013-01-21 18:42:00,
2013-01-21 13:47:00,58.1,26.8,29.97,WSW,240,4.0,10.0,30,0.00,,,0.00,361,Wunderground v.1.15,2013-01-21 18:47:00,
2013-01-21 13:54:00,58.3,26.1,29.97,SW,222,5.0,7.0,29,0.00,,,0.00,58,Wunderground v.1.15,2013-01-21 18:54:00,
2013-01-21 14:00:00,58.4,26.2,29.96,SW,227,5.0,6.0,29,0.00,,,0.00,245,Wunderground v.1.15,2013-01-21 19:00:00,
2013-01-21 14:06:00,58.4,26.2,29.96,SW,224,6.0,6.0,29,0.00,,,0.00,97,Wunderground v.1.15,2013-01-21 19:06:00,
2013-01-21 14:12:00,58.4,27.1,29.96,SSW,193,8.0,8.0,30,0.00,,,0.00,155,Wunderground v.1.15,2013-01-21 19:12:00,
2013-01-21 14:18:00,58.4,28.6,29.95,West,263,6.0,12.0,32,0.00,,,0.00,51,Wunderground v.1.15,2013-01-21 19:18:00,
2013-01-21 14:24:00,58.4,27.9,29.95,SSW,206,6.0,7.0,31,0.00,,,0.00,77,Wunderground v.1.15,2013-01-21 19:24:00,
2013-01-21 14:30:00,58.3,27.8,29.94,WSW,240,8.0,8.0,31,0.00,,,0.00,74,Wunderground v.1.15,2013-01-21 19:30:00,
2013-01-21 14:36:00,58.3,27.0,29.94,West,274,6.0,8.0,30,0.00,,,0.00,46,Wunderground v.1.15,2013-01-21 19:36:00,
2013-01-21 14:42:00,58.4,27.1,29.94,SW,217,4.0,7.0,30,0.00,,,0.00,55,Wunderground v.1.15,2013-01-21 19:42:00,
2013-01-21 14:48:00,58.6,28.8,29.94,SW,216,6.0,10.0,32,0.00,,,0.00,130,Wunderground v.1.15,2013-01-21 19:48:00,
2013-01-21 14:53:00,59.0,26.8,29.94,NW,325,5.0,6.0,29,0.00,,,0.00,405,Wunderground v.1.15,2013-01-21 19:53:00,
2013-01-21 15:00:00,59.6,28.1,29.92,SW,236,4.0,4.0,30,0.00,,,0.00,398,Wunderground v.1.15,2013-01-21 20:00:00,
2013-01-21 15:06:00,60.1,29.3,29.92,SW,220,6.0,10.0,31,0.00,,,0.00,384,Wunderground v.1.15,2013-01-21 20:06:00,
2013-01-21 15:12:00,60.2,27.8,29.92,WNW,302,7.0,7.0,29,0.00,,,0.00,368,Wunderground v.1.15,2013-01-21 20:12:00,
2013-01-21 15:18:00,60.4,28.8,29.92,WNW,284,6.0,7.0,30,0.00,,,0.00,350,Wunderground v.1.15,2013-01-21 20:18:00,
2013-01-21 15:23:00,60.1,28.5,29.92,WSW,247,7.0,10.0,30,0.00,,,0.00,326,Wunderground v.1.15,2013-01-21 20:23:00,
2013-01-21 15:30:00,59.5,28.0,29.92,WSW,237,7.0,7.0,30,0.00,,,0.00,62,Wunderground v.1.15,2013-01-21 20:30:00,
2013-01-21 15:36:00,59.0,27.6,29.92,West,261,6.0,7.0,30,0.00,,,0.00,42,Wunderground v.1.15,2013-01-21 20:36:00,
2013-01-21 15:42:00,58.9,28.3,29.92,NW,306,4.0,7.0,31,0.00,,,0.00,44,Wunderground v.1.15,2013-01-21 20:42:00,
2013-01-21 15:47:00,58.9,28.3,29.92,West,265,5.0,10.0,31,0.00,,,0.00,46,Wunderground v.1.15,2013-01-21 20:47:00,
2013-01-21 15:54:00,58.6,28.8,29.92,WSW,251,6.0,10.0,32,0.00,,,0.00,39,Wunderground v.1.15,2013-01-21 20:54:00,
2013-01-21 16:00:00,58.4,28.6,29.92,SW,224,6.0,6.0,32,0.00,,,0.00,33,Wunderground v.1.15,2013-01-21 21:00:00,
2013-01-21 16:06:00,58.1,29.1,29.92,SW,215,7.0,7.0,33,0.00,,,0.00,35,Wunderground v.1.15,2013-01-21 21:06:00,
2013-01-21 16:12:00,57.8,29.6,29.92,WSW,257,6.0,7.0,34,0.00,,,0.00,33,Wunderground v.1.15,2013-01-21 21:12:00,
2013-01-21 16:18:00,57.6,29.4,29.91,West,274,6.0,9.0,34,0.00,,,0.00,48,Wunderground v.1.15,2013-01-21 21:18:00,
2013-01-21 16:24:00,57.6,30.1,29.91,WSW,256,6.0,6.0,35,0.00,,,0.00,39,Wunderground v.1.15,2013-01-21 21:24:00,
2013-01-21 16:30:00,57.6,30.1,29.90,WSW,251,5.0,6.0,35,0.00,,,0.00,35,Wunderground v.1.15,2013-01-21 21:30:00,
2013-01-21 16:36:00,57.5,29.3,29.90,SW,236,4.0,7.0,34,0.00,,,0.00,35,Wunderground v.1.15,2013-01-21 21:36:00,
2013-01-21 16:42:00,57.5,30.7,29.90,SW,232,4.0,4.0,36,0.00,,,0.00,28,Wunderground v.1.15,2013-01-21 21:42:00,
2013-01-21 16:48:00,57.2,30.5,29.90,WSW,246,5.0,7.0,36,0.00,,,0.00,21,Wunderground v.1.15,2013-01-21 21:48:00,
2013-01-21 16:54:00,56.9,30.9,29.90,SW,217,5.0,5.0,37,0.00,,,0.00,23,Wunderground v.1.15,2013-01-21 21:54:00,
2013-01-21 17:00:00,56.6,30.6,29.90,WSW,250,5.0,7.0,37,0.00,,,0.00,21,Wunderground v.1.15,2013-01-21 22:00:00,
2013-01-21 17:06:00,56.3,31.0,29.90,WSW,237,6.0,7.0,38,0.00,,,0.00,18,Wunderground v.1.15,2013-01-21 22:06:00,
2013-01-21 17:12:00,56.0,30.7,29.90,WSW,248,4.0,6.0,38,0.00,,,0.00,16,Wunderground v.1.15,2013-01-21 22:12:00,
2013-01-21 17:18:00,55.9,30.6,29.90,SW,215,3.0,6.0,38,0.00,,,0.00,9,Wunderground v.1.15,2013-01-21 22:18:00,
2013-01-21 17:24:00,55.4,30.8,29.90,SW,226,3.0,5.0,39,0.00,,,0.00,7,Wunderground v.1.15,2013-01-21 22:24:00,
2013-01-21 17:30:00,55.0,31.1,29.89,SW,220,3.0,5.0,40,0.00,,,0.00,7,Wunderground v.1.15,2013-01-21 22:30:00,
2013-01-21 17:36:00,54.7,31.4,29.89,SW,219,3.0,7.0,41,0.00,,,0.00,0,Wunderground v.1.15,2013-01-21 22:36:00,
2013-01-21 17:42:00,54.5,31.3,29.89,SW,233,3.0,3.0,41,0.00,,,0.00,0,Wunderground v.1.15,2013-01-21 22:42:00,
2013-01-21 17:48:00,54.4,31.2,29.89,WSW,240,4.0,6.0,41,0.00,,,0.00,0,Wunderground v.1.15,2013-01-21 22:48:00,
2013-01-21 17:54:00,54.1,31.5,29.89,SW,233,5.0,6.0,42,0.00,,,0.00,0,Wunderground v.1.15,2013-01-21 22:54:00,
2013-01-21 18:00:00,53.9,30.7,29.89,WSW,241,5.0,6.0,41,0.00,,,0.00,0,Wunderground v.1.15,2013-01-21 23:00:00,
2013-01-21 18:06:00,53.8,31.2,29.89,WSW,257,4.0,6.0,42,0.00,,,0.00,0,Wunderground v.1.15,2013-01-21 23:06:00,
2013-01-21 18:12:00,53.6,30.4,29.89,WNW,294,5.0,5.0,41,0.00,,,0.00,0,Wunderground v.1.15,2013-01-21 23:12:00,
2013-01-21 18:18:00,53.6,30.4,29.90,SW,229,5.0,12.0,41,0.00,,,0.00,0,Wunderground v.1.15,2013-01-21 23:18:00,
2013-01-21 18:24:00,53.6,30.4,29.90,WSW,243,6.0,7.0,41,0.00,,,0.00,0,Wunderground v.1.15,2013-01-21 23:24:00,
2013-01-21 18:30:00,53.5,30.4,29.91,West,260,5.0,7.0,41,0.00,,,0.00,0,Wunderground v.1.15,2013-01-21 23:30:00,
2013-01-21 18:36:00,53.3,30.2,29.91,SW,226,5.0,7.0,41,0.00,,,0.00,0,Wunderground v.1.15,2013-01-21 23:36:00,
2013-01-21 18:42:00,53.1,30.6,29.91,SW,222,4.0,5.0,42,0.00,,,0.00,0,Wunderground v.1.15,2013-01-21 23:42:00,
2013-01-21 18:47:00,52.8,30.3,29.91,WSW,240,4.0,5.0,42,0.00,,,0.00,0,Wunderground v.1.15,2013-01-21 23:47:00,
2013-01-21 18:54:00,52.6,30.1,29.91,WSW,239,3.0,5.0,42,0.00,,,0.00,0,Wunderground v.1.15,2013-01-21 23:54:00,
2013-01-21 19:00:00,52.3,30.4,29.91,WSW,246,4.0,4.0,43,0.00,,,0.00,0,Wunderground v.1.15,2013-01-22 00:00:00,
2013-01-21 19:06:00,52.2,30.4,29.91,WSW,244,3.0,4.0,43,0.00,,,0.00,0,Wunderground v.1.15,2013-01-22 00:06:00,
2013-01-21 19:12:00,51.9,30.1,29.91,WSW,248,3.0,7.0,43,0.00,,,0.00,0,Wunderground v.1.15,2013-01-22 00:12:00,
2013-01-21 19:18:00,51.7,30.5,29.91,WSW,248,3.0,7.0,44,0.00,,,0.00,0,Wunderground v.1.15,2013-01-22 00:18:00,
2013-01-21 19:24:00,51.6,30.4,29.91,West,263,3.0,3.0,44,0.00,,,0.00,0,Wunderground v.1.15,2013-01-22 00:24:00,
2013-01-21 19:30:00,51.4,30.2,29.91,West,265,2.0,2.0,44,0.00,,,0.00,0,Wunderground v.1.15,2013-01-22 00:30:00,
2013-01-21 19:36:00,51.3,30.7,29.91,WSW,254,2.0,5.0,45,0.00,,,0.00,0,Wunderground v.1.15,2013-01-22 00:36:00,
2013-01-21 19:42:00,51.0,30.9,29.91,WSW,244,4.0,4.0,46,0.00,,,0.00,0,Wunderground v.1.15,2013-01-22 00:42:00,
2013-01-21 19:48:00,50.7,30.7,29.92,West,260,4.0,5.0,46,0.00,,,0.00,0,Wunderground v.1.15,2013-01-22 00:48:00,
2013-01-21 19:54:00,50.5,31.0,29.92,WSW,240,4.0,4.0,47,0.00,,,0.00,0,Wunderground v.1.15,2013-01-22 00:54:00,
2013-01-21 20:00:00,50.4,31.4,29.93,West,271,4.0,8.0,48,0.00,,,0.00,0,Wunderground v.1.15,2013-01-22 01:00:00,
2013-01-21 20:06:00,50.5,31.5,29.93,WNW,287,5.0,8.0,48,0.00,,,0.00,0,Wunderground v.1.15,2013-01-22 01:06:00,
2013-01-21 20:12:00,51.0,30.9,29.93,NW,325,5.0,10.0,46,0.00,,,0.00,0,Wunderground v.1.15,2013-01-22 01:12:00,
2013-01-21 20:18:00,51.6,30.9,29.93,NW,323,5.0,10.0,45,0.00,,,0.00,0,Wunderground v.1.15,2013-01-22 01:18:00,
2013-01-21 20:23:00,51.6,30.9,29.93,WNW,292,4.0,5.0,45,0.00,,,0.00,0,Wunderground v.1.15,2013-01-22 01:23:00,
2013-01-21 20:30:00,51.4,29.6,29.94,SW,233,4.0,5.0,43,0.00,,,0.00,0,Wunderground v.1.15,2013-01-22 01:30:00,
2013-01-21 20:36:00,51.4,29.1,29.94,West,280,4.0,5.0,42,0.00,,,0.00,0,Wunderground v.1.15,2013-01-22 01:36:00,
2013-01-21 20:41:00,51.3,29.0,29.94,NW,326,4.0,5.0,42,0.00,,,0.00,0,Wunderground v.1.15,2013-01-22 01:41:00,
2013-01-21 20:48:00,51.1,29.4,29.94,NW,323,4.0,8.0,43,0.00,,,0.00,0,Wunderground v.1.15,2013-01-22 01:48:00,
2013-01-21 20:54:00,50.8,29.1,29.94,NW,316,4.0,5.0,43,0.00,,,0.00,0,Wunderground v.1.15,2013-01-22 01:54:00,
2013-01-21 21:00:00,50.8,26.7,29.95,NW,315,8.0,16.0,39,0.00,,,0.00,0,Wunderground v.1.15,2013-01-22 02:00:00,
2013-01-21 21:06:00,50.8,26.7,29.95,NNW,337,10.0,16.0,39,0.00,,,0.00,0,Wunderground v.1.15,2013-01-22 02:06:00,
2013-01-21 21:12:00,50.5,25.2,29.95,West,265,8.0,13.0,37,0.00,,,0.00,0,Wunderground v.1.15,2013-01-22 02:12:00,
2013-01-21 21:18:00,50.2,22.9,29.95,WSW,253,6.0,13.0,34,0.00,,,0.00,0,Wunderground v.1.15,2013-01-22 02:18:00,
2013-01-21 21:24:00,49.9,21.9,29.95,NNW,335,5.0,5.0,33,0.00,,,0.00,0,Wunderground v.1.15,2013-01-22 02:24:00,
2013-01-21 21:30:00,49.6,21.6,29.95,NW,313,6.0,9.0,33,0.00,,,0.00,0,Wunderground v.1.15,2013-01-22 02:30:00,
2013-01-21 21:36:00,49.4,20.0,29.95,West,270,6.0,9.0,31,0.00,,,0.00,0,Wunderground v.1.15,2013-01-22 02:36:00,
2013-01-21 21:42:00,49.1,19.0,29.95,WSW,256,5.0,8.0,30,0.00,,,0.00,0,Wunderground v.1.15,2013-01-22 02:42:00,
2013-01-21 21:48:00,48.9,18.0,29.96,NNW,340,6.0,8.0,29,0.00,,,0.00,0,Wunderground v.1.15,2013-01-22 02:48:00,
2013-01-21 21:54:00,48.9,18.0,29.96,NW,319,7.0,11.0,29,0.00,,,0.00,0,Wunderground v.1.15,2013-01-22 02:54:00,
2013-01-21 22:00:00,48.8,17.1,29.96,NW,311,7.0,7.0,28,0.00,,,0.00,0,Wunderground v.1.15,2013-01-22 03:00:00,
2013-01-21 22:06:00,48.5,16.0,29.96,WNW,299,7.0,11.0,27,0.00,,,0.00,0,Wunderground v.1.15,2013-01-22 03:06:00,
2013-01-21 22:12:00,48.2,16.6,29.96,NW,319,7.0,7.0,28,0.00,,,0.00,0,Wunderground v.1.15,2013-01-22 03:12:00,
2013-01-21 22:18:00,48.0,15.6,29.97,WNW,302,7.0,10.0,27,0.00,,,0.00,0,Wunderground v.1.15,2013-01-22 03:18:00,
2013-01-21 22:24:00,47.9,16.3,29.97,NW,322,5.0,10.0,28,0.00,,,0.00,0,Wunderground v.1.15,2013-01-22 03:24:00,
2013-01-21 22:30:00,47.4,15.9,29.97,West,280,4.0,4.0,28,0.00,,,0.00,0,Wunderground v.1.15,2013-01-22 03:30:00,
2013-01-21 22:36:00,47.0,17.1,29.97,WNW,301,4.0,7.0,30,0.00,,,0.00,0,Wunderground v.1.15,2013-01-22 03:36:00,
2013-01-21 22:42:00,46.5,16.7,29.97,NW,308,3.0,11.0,30,0.00,,,0.00,0,Wunderground v.1.15,2013-01-22 03:42:00,
2013-01-21 22:48:00,46.2,16.4,29.98,WNW,291,4.0,11.0,30,0.00,,,0.00,0,Wunderground v.1.15,2013-01-22 03:48:00,
2013-01-21 22:54:00,46.1,17.1,29.98,NW,308,4.0,7.0,31,0.00,,,0.00,0,Wunderground v.1.15,2013-01-22 03:54:00,
2013-01-21 23:00:00,45.7,16.0,29.98,NW,305,4.0,4.0,30,0.00,,,0.00,0,Wunderground v.1.15,2013-01-22 04:00:00,
2013-01-21 23:06:00,45.5,15.8,29.98,NW,320,4.0,5.0,30,0.00,,,0.00,0,Wunderground v.1.15,2013-01-22 04:06:00,
2013-01-21 23:12:00,45.5,15.8,29.98,NW,309,5.0,7.0,30,0.00,,,0.00,0,Wunderground v.1.15,2013-01-22 04:12:00,
2013-01-21 23:18:00,45.4,15.7,29.98,NW,320,5.0,7.0,30,0.00,,,0.00,0,Wunderground v.1.15,2013-01-22 04:18:00,
2013-01-21 23:24:00,45.2,15.6,29.98,WNW,289,4.0,5.0,30,0.00,,,0.00,0,Wunderground v.1.15,2013-01-22 04:24:00,
2013-01-21 23:30:00,45.1,15.5,29.98,NW,325,3.0,3.0,30,0.00,,,0.00,0,Wunderground v.1.15,2013-01-22 04:30:00,
2013-01-21 23:36:00,44.9,15.3,29.98,West,274,3.0,3.0,30,0.00,,,0.00,0,Wunderground v.1.15,2013-01-22 04:36:00,
2013-01-21 23:41:00,44.6,15.8,29.98,WNW,296,3.0,3.0,31,0.00,,,0.00,0,Wunderground v.1.15,2013-01-22 04:41:00,
2013-01-21 23:48:00,44.2,16.2,29.98,NW,305,3.0,3.0,32,0.00,,,0.00,0,Wunderground v.1.15,2013-01-22 04:48:00,
2013-01-21 23:54:00,44.1,16.1,29.98,WNW,294,3.0,7.0,32,0.00,,,0.00,0,Wunderground v.1.15,2013-01-22 04:54:00,